﻿測定場所 (Monitoring sites),日付 (Measurement date),時間 (Measurement time),線量率 最大値 (max) μGy/h,線量率 最小値 (min) μGy/h,線量率 平均値 (average) μGy/h,
大田 (Ota),2023-03-26,23:01～24:00,0.0349,0.0294,0.0322,
大田 (Ota),2023-03-26,22:01～23:00,0.0349,0.0300,0.0324,
大田 (Ota),2023-03-26,21:01～22:00,0.0350,0.0299,0.0324,
大田 (Ota),2023-03-26,20:01～21:00,0.0346,0.0297,0.0320,
大田 (Ota),2023-03-26,19:01～20:00,0.0357,0.0296,0.0323,
大田 (Ota),2023-03-26,18:01～19:00,0.0366,0.0294,0.0334,
大田 (Ota),2023-03-26,17:01～18:00,0.0384,0.0336,0.0360,
大田 (Ota),2023-03-26,16:01～17:00,0.0444,0.0356,0.0389,
大田 (Ota),2023-03-26,15:01～16:00,0.0511,0.0413,0.0468,
大田 (Ota),2023-03-26,14:01～15:00,0.0530,0.0466,0.0495,
大田 (Ota),2023-03-26,13:01～14:00,0.0548,0.0468,0.0507,
大田 (Ota),2023-03-26,12:01～13:00,0.0520,0.0468,0.0495,
大田 (Ota),2023-03-26,11:01～12:00,0.0500,0.0409,0.0460,
大田 (Ota),2023-03-26,10:01～11:00,0.0439,0.0376,0.0405,
大田 (Ota),2023-03-26,09:01～10:00,0.0398,0.0337,0.0369,
大田 (Ota),2023-03-26,08:01～09:00,0.0353,0.0311,0.0332,
大田 (Ota),2023-03-26,07:01～08:00,0.0375,0.0308,0.0340,
大田 (Ota),2023-03-26,06:01～07:00,0.0392,0.0333,0.0366,
大田 (Ota),2023-03-26,05:01～06:00,0.0382,0.0323,0.0345,
大田 (Ota),2023-03-26,04:01～05:00,0.0354,0.0313,0.0331,
大田 (Ota),2023-03-26,03:01～04:00,0.0364,0.0313,0.0336,
大田 (Ota),2023-03-26,02:01～03:00,0.0392,0.0308,0.0352,
大田 (Ota),2023-03-26,01:01～02:00,0.0423,0.0363,0.0390,
大田 (Ota),2023-03-26,00:01～01:00,0.0418,0.0369,0.0393,
大田 (Ota),2023-03-25,23:01～24:00,0.0408,0.0338,0.0376,
大田 (Ota),2023-03-25,22:01～23:00,0.0395,0.0337,0.0362,
大田 (Ota),2023-03-25,21:01～22:00,0.0389,0.0331,0.0357,
大田 (Ota),2023-03-25,20:01～21:00,0.0360,0.0311,0.0333,
大田 (Ota),2023-03-25,19:01～20:00,0.0338,0.0298,0.0319,
大田 (Ota),2023-03-25,18:01～19:00,0.0349,0.0293,0.0316,
大田 (Ota),2023-03-25,17:01～18:00,0.0336,0.0297,0.0317,
大田 (Ota),2023-03-25,16:01～17:00,0.0364,0.0299,0.0325,
大田 (Ota),2023-03-25,15:01～16:00,0.0381,0.0319,0.0348,
大田 (Ota),2023-03-25,14:01～15:00,0.0435,0.0348,0.0392,
大田 (Ota),2023-03-25,13:01～14:00,0.0499,0.0392,0.0440,
大田 (Ota),2023-03-25,12:01～13:00,0.0491,0.0418,0.0459,
大田 (Ota),2023-03-25,11:01～12:00,0.0527,0.0447,0.0494,
大田 (Ota),2023-03-25,10:01～11:00,0.0522,0.0467,0.0499,
大田 (Ota),2023-03-25,09:01～10:00,0.0496,0.0439,0.0471,
大田 (Ota),2023-03-25,08:01～09:00,0.0523,0.0472,0.0499,
大田 (Ota),2023-03-25,07:01～08:00,0.0527,0.0423,0.0485,
大田 (Ota),2023-03-25,06:01～07:00,0.0437,0.0396,0.0413,
大田 (Ota),2023-03-25,05:01～06:00,0.0437,0.0367,0.0400,
大田 (Ota),2023-03-25,04:01～05:00,0.0436,0.0369,0.0400,
大田 (Ota),2023-03-25,03:01～04:00,0.0407,0.0329,0.0367,
大田 (Ota),2023-03-25,02:01～03:00,0.0446,0.0343,0.0392,
大田 (Ota),2023-03-25,01:01～02:00,0.0528,0.0417,0.0469,
大田 (Ota),2023-03-25,00:01～01:00,0.0561,0.0491,0.0529,
大田 (Ota),2023-03-24,23:01～24:00,0.0538,0.0445,0.0492,
大田 (Ota),2023-03-24,22:01～23:00,0.0532,0.0464,0.0499,
大田 (Ota),2023-03-24,21:01～22:00,0.0514,0.0423,0.0469,
大田 (Ota),2023-03-24,20:01～21:00,0.0450,0.0316,0.0371,
大田 (Ota),2023-03-24,19:01～20:00,0.0398,0.0325,0.0356,
大田 (Ota),2023-03-24,18:01～19:00,0.0473,0.0371,0.0428,
大田 (Ota),2023-03-24,17:01～18:00,0.0513,0.0447,0.0483,
大田 (Ota),2023-03-24,16:01～17:00,0.0491,0.0327,0.0423,
大田 (Ota),2023-03-24,15:01～16:00,0.0379,0.0318,0.0350,
大田 (Ota),2023-03-24,14:01～15:00,0.0366,0.0297,0.0329,
大田 (Ota),2023-03-24,13:01～14:00,0.0343,0.0293,0.0323,
大田 (Ota),2023-03-24,12:01～13:00,0.0350,0.0295,0.0323,
大田 (Ota),2023-03-24,11:01～12:00,0.0345,0.0301,0.0323,
大田 (Ota),2023-03-24,10:01～11:00,0.0348,0.0301,0.0324,
大田 (Ota),2023-03-24,09:01～10:00,0.0355,0.0296,0.0328,
大田 (Ota),2023-03-24,08:01～09:00,0.0346,0.0298,0.0323,
大田 (Ota),2023-03-24,07:01～08:00,0.0343,0.0300,0.0323,
大田 (Ota),2023-03-24,06:01～07:00,0.0339,0.0289,0.0319,
大田 (Ota),2023-03-24,05:01～06:00,0.0339,0.0308,0.0324,
大田 (Ota),2023-03-24,04:01～05:00,0.0348,0.0290,0.0325,
大田 (Ota),2023-03-24,03:01～04:00,0.0349,0.0293,0.0320,
大田 (Ota),2023-03-24,02:01～03:00,0.0343,0.0301,0.0320,
大田 (Ota),2023-03-24,01:01～02:00,0.0342,0.0299,0.0320,
大田 (Ota),2023-03-24,00:01～01:00,0.0363,0.0305,0.0330,
大田 (Ota),2023-03-23,23:01～24:00,0.0410,0.0326,0.0362,
大田 (Ota),2023-03-23,22:01～23:00,0.0478,0.0380,0.0431,
大田 (Ota),2023-03-23,21:01～22:00,0.0490,0.0377,0.0443,
大田 (Ota),2023-03-23,20:01～21:00,0.0429,0.0346,0.0389,
大田 (Ota),2023-03-23,19:01～20:00,0.0413,0.0359,0.0387,
大田 (Ota),2023-03-23,18:01～19:00,0.0416,0.0339,0.0372,
大田 (Ota),2023-03-23,17:01～18:00,0.0389,0.0318,0.0359,
大田 (Ota),2023-03-23,16:01～17:00,0.0346,0.0303,0.0323,
大田 (Ota),2023-03-23,15:01～16:00,0.0370,0.0311,0.0342,
大田 (Ota),2023-03-23,14:01～15:00,0.0414,0.0330,0.0384,
大田 (Ota),2023-03-23,13:01～14:00,0.0405,0.0360,0.0380,
大田 (Ota),2023-03-23,12:01～13:00,0.0387,0.0345,0.0369,
大田 (Ota),2023-03-23,11:01～12:00,0.0399,0.0350,0.0371,
大田 (Ota),2023-03-23,10:01～11:00,0.0387,0.0316,0.0349,
大田 (Ota),2023-03-23,09:01～10:00,0.0374,0.0313,0.0337,
大田 (Ota),2023-03-23,08:01～09:00,0.0349,0.0302,0.0323,
大田 (Ota),2023-03-23,07:01～08:00,0.0345,0.0298,0.0320,
大田 (Ota),2023-03-23,06:01～07:00,0.0343,0.0299,0.0323,
大田 (Ota),2023-03-23,05:01～06:00,0.0348,0.0300,0.0325,
大田 (Ota),2023-03-23,04:01～05:00,0.0347,0.0297,0.0322,
大田 (Ota),2023-03-23,03:01～04:00,0.0343,0.0302,0.0321,
大田 (Ota),2023-03-23,02:01～03:00,0.0351,0.0303,0.0323,
大田 (Ota),2023-03-23,01:01～02:00,0.0346,0.0290,0.0320,
大田 (Ota),2023-03-23,00:01～01:00,0.0362,0.0304,0.0323,
大田 (Ota),2023-03-22,23:01～24:00,0.0339,0.0298,0.0321,
大田 (Ota),2023-03-22,22:01～23:00,0.0353,0.0299,0.0319,
大田 (Ota),2023-03-22,21:01～22:00,0.0350,0.0301,0.0321,
大田 (Ota),2023-03-22,20:01～21:00,0.0337,0.0299,0.0320,
大田 (Ota),2023-03-22,19:01～20:00,0.0343,0.0297,0.0318,
大田 (Ota),2023-03-22,18:01～19:00,0.0344,0.0283,0.0318,
大田 (Ota),2023-03-22,17:01～18:00,0.0339,0.0296,0.0319,
大田 (Ota),2023-03-22,16:01～17:00,0.0345,0.0300,0.0323,
大田 (Ota),2023-03-22,15:01～16:00,0.0347,0.0286,0.0322,
大田 (Ota),2023-03-22,14:01～15:00,0.0356,0.0302,0.0324,
大田 (Ota),2023-03-22,13:01～14:00,0.0348,0.0305,0.0324,
大田 (Ota),2023-03-22,12:01～13:00,0.0344,0.0298,0.0323,
大田 (Ota),2023-03-22,11:01～12:00,0.0346,0.0298,0.0323,
大田 (Ota),2023-03-22,10:01～11:00,0.0359,0.0296,0.0325,
大田 (Ota),2023-03-22,09:01～10:00,0.0353,0.0297,0.0329,
大田 (Ota),2023-03-22,08:01～09:00,0.0346,0.0309,0.0329,
大田 (Ota),2023-03-22,07:01～08:00,0.0356,0.0307,0.0328,
大田 (Ota),2023-03-22,06:01～07:00,0.0353,0.0307,0.0328,
大田 (Ota),2023-03-22,05:01～06:00,0.0347,0.0303,0.0327,
大田 (Ota),2023-03-22,04:01～05:00,0.0351,0.0310,0.0326,
大田 (Ota),2023-03-22,03:01～04:00,0.0360,0.0304,0.0328,
大田 (Ota),2023-03-22,02:01～03:00,0.0357,0.0305,0.0325,
大田 (Ota),2023-03-22,01:01～02:00,0.0346,0.0295,0.0324,
大田 (Ota),2023-03-22,00:01～01:00,0.0360,0.0302,0.0323,
大田 (Ota),2023-03-21,23:01～24:00,0.0346,0.0301,0.0319,
大田 (Ota),2023-03-21,22:01～23:00,0.0343,0.0298,0.0322,
大田 (Ota),2023-03-21,21:01～22:00,0.0345,0.0297,0.0322,
大田 (Ota),2023-03-21,20:01～21:00,0.0339,0.0300,0.0322,
大田 (Ota),2023-03-21,19:01～20:00,0.0344,0.0302,0.0322,
大田 (Ota),2023-03-21,18:01～19:00,0.0344,0.0290,0.0321,
大田 (Ota),2023-03-21,17:01～18:00,0.0339,0.0294,0.0320,
大田 (Ota),2023-03-21,16:01～17:00,0.0354,0.0300,0.0322,
大田 (Ota),2023-03-21,15:01～16:00,0.0357,0.0293,0.0321,
大田 (Ota),2023-03-21,14:01～15:00,0.0351,0.0298,0.0321,
大田 (Ota),2023-03-21,13:01～14:00,0.0336,0.0304,0.0323,
大田 (Ota),2023-03-21,12:01～13:00,0.0348,0.0309,0.0323,
大田 (Ota),2023-03-21,11:01～12:00,0.0343,0.0308,0.0326,
大田 (Ota),2023-03-21,10:01～11:00,0.0364,0.0308,0.0330,
大田 (Ota),2023-03-21,09:01～10:00,0.0345,0.0304,0.0327,
大田 (Ota),2023-03-21,08:01～09:00,0.0350,0.0311,0.0329,
大田 (Ota),2023-03-21,07:01～08:00,0.0348,0.0299,0.0329,
大田 (Ota),2023-03-21,06:01～07:00,0.0346,0.0300,0.0325,
大田 (Ota),2023-03-21,05:01～06:00,0.0345,0.0298,0.0321,
大田 (Ota),2023-03-21,04:01～05:00,0.0352,0.0297,0.0321,
大田 (Ota),2023-03-21,03:01～04:00,0.0343,0.0299,0.0322,
大田 (Ota),2023-03-21,02:01～03:00,0.0346,0.0301,0.0321,
大田 (Ota),2023-03-21,01:01～02:00,0.0340,0.0304,0.0322,
大田 (Ota),2023-03-21,00:01～01:00,0.0345,0.0292,0.0321,
大田 (Ota),2023-03-20,23:01～24:00,0.0339,0.0291,0.0320,
大田 (Ota),2023-03-20,22:01～23:00,0.0347,0.0301,0.0321,
大田 (Ota),2023-03-20,21:01～22:00,0.0338,0.0290,0.0320,
大田 (Ota),2023-03-20,20:01～21:00,0.0339,0.0294,0.0318,
大田 (Ota),2023-03-20,19:01～20:00,0.0349,0.0299,0.0320,
大田 (Ota),2023-03-20,18:01～19:00,0.0336,0.0302,0.0318,
大田 (Ota),2023-03-20,17:01～18:00,0.0346,0.0287,0.0319,
大田 (Ota),2023-03-20,16:01～17:00,0.0353,0.0287,0.0320,
大田 (Ota),2023-03-20,15:01～16:00,0.0345,0.0292,0.0318,
大田 (Ota),2023-03-20,14:01～15:00,0.0359,0.0297,0.0323,
大田 (Ota),2023-03-20,13:01～14:00,0.0349,0.0298,0.0323,
大田 (Ota),2023-03-20,12:01～13:00,0.0336,0.0292,0.0320,
大田 (Ota),2023-03-20,11:01～12:00,0.0344,0.0292,0.0323,
大田 (Ota),2023-03-20,10:01～11:00,0.0351,0.0301,0.0325,
大田 (Ota),2023-03-20,09:01～10:00,0.0356,0.0304,0.0327,
大田 (Ota),2023-03-20,08:01～09:00,0.0347,0.0301,0.0326,
大田 (Ota),2023-03-20,07:01～08:00,0.0350,0.0302,0.0323,
大田 (Ota),2023-03-20,06:01～07:00,0.0353,0.0303,0.0325,
大田 (Ota),2023-03-20,05:01～06:00,0.0353,0.0307,0.0327,
大田 (Ota),2023-03-20,04:01～05:00,0.0344,0.0308,0.0325,
大田 (Ota),2023-03-20,03:01～04:00,0.0339,0.0297,0.0320,
大田 (Ota),2023-03-20,02:01～03:00,0.0342,0.0303,0.0321,
大田 (Ota),2023-03-20,01:01～02:00,0.0348,0.0298,0.0320,
大田 (Ota),2023-03-20,00:01～01:00,0.0346,0.0296,0.0316,
